Location: Pacheco
(37.9835°N, 122.0752°W)
Time: 14:39:53
(UTC+00:00)

KORONAS-FOTON - Visible Passes

Search period start: 12 July 2024 00:00
Search period end: 22 July 2024 00:00
Orbit: 474 x 497 km, 82.4° (Epoch: 11 July)

Date Brightness Start Highest point End Pass type
(mag) Time Alt. Az. Time Alt. Az. Time Alt. Az.
12 Jul 6.8 11:01:33 10° NE 11:02:50 11° ENE 11:04:06 10° E visible
13 Jul 3.7 12:10:11 10° NNW 12:13:44 59° W 12:17:15 10° S visible
14 Jul 3.7 11:45:45 10° N 11:49:21 78° E 11:52:55 10° S visible
15 Jul 4.8 11:21:27 10° N 11:24:54 43° E 11:28:20 10° SSE visible
16 Jul 5.7 10:57:20 10° NNE 11:00:24 26° ENE 11:03:28 10° SE visible
17 Jul 6.4 10:33:29 10° NNE 10:35:52 16° ENE 10:38:13 10° ESE visible
17 Jul 4.9 12:08:00 10° NW 12:10:54 23° W 12:13:45 10° SW visible
18 Jul 6.8 10:10:44 10° ENE 10:11:15 10° ENE 10:11:46 10° E visible
18 Jul 4.2 11:43:10 10° NNW 11:46:32 38° W 11:48:40 19° SSW visible
19 Jul 3.5 11:18:32 10° NNW 11:22:07 69° W 11:23:39 31° S visible
20 Jul 3.8 10:54:03 10° N 10:57:38 67° E 10:58:41 42° SSE visible
21 Jul 4.8 10:29:43 10° N 10:33:06 38° E 10:33:46 34° ESE visible
